Back to catalog

DELTA 1 DEB

AliveSSO
NORAD 7143·DEBRIS·🇺🇸 United States

Launched Nov 6, 1973 from Vandenberg Space Force Base

Loading…

Next Passes (next 24 hours)

TLE

FreshSource: Space-Track

Epoch: Sep 14, 2026, 00:42 UTC

1 07143U 73086DH  26257.02957650 -.00000030  00000-0  98414-4 0  9999
2 07143 101.7597 278.7754 0047785 226.8119 159.8336 12.33016636378292

Track DELTA 1 DEB in real time with AllMySat

Download on the App Store